HAZ3762 ZHHH-ZGGG

Flight info

Callsign HAZ3762
Flight time 1h 20m
Altitude 32100
Route OLMIB1E OLMIB W37 OMBEB R473 BEMAG V5 ENVIP ENVIP9
Aircraft A320/M-SDE3FGHIRWY/LB1

Departure

Time 2026-04-29 01:46
Airport Wuhan Tianhe International Airport (ZHHH)

Arrival

Time 2026-04-29 03:06
Airport Guangzhou Baiyun International Airport (ZGGG)
Time Latitude Longitude Altitude Speed Heading
2026-04-29 01:26 30.77531 114.21611 109 ft 0 kts 221°
2026-04-29 01:37 30.77542 114.21622 107 ft 3 kts 221°
2026-04-29 01:37 30.77558 114.21639 106 ft 3 kts 221°
2026-04-29 01:37 30.77575 114.21656 106 ft 3 kts 221°
2026-04-29 01:37 30.77590 114.21671 107 ft 3 kts 200°
2026-04-29 01:38 30.77608 114.21673 108 ft 3 kts 151°
2026-04-29 01:38 30.77624 114.21658 109 ft 3 kts 131°
2026-04-29 01:38 30.77632 114.21647 109 ft 0 kts 131°
2026-04-29 01:40 30.77609 114.21678 107 ft 12 kts 131°
2026-04-29 01:40 30.77527 114.21786 108 ft 21 kts 131°
2026-04-29 01:41 30.77429 114.21915 108 ft 22 kts 130°
2026-04-29 01:41 30.77323 114.22053 107 ft 24 kts 131°
2026-04-29 01:41 30.77212 114.22199 107 ft 21 kts 130°
2026-04-29 01:41 30.77141 114.22217 107 ft 11 kts 218°
2026-04-29 01:42 30.77063 114.22140 107 ft 23 kts 221°
2026-04-29 01:42 30.76923 114.21998 108 ft 28 kts 221°
2026-04-29 01:42 30.76775 114.21846 108 ft 29 kts 221°
2026-04-29 01:42 30.76620 114.21688 108 ft 30 kts 221°
2026-04-29 01:43 30.76472 114.21538 108 ft 27 kts 221°
2026-04-29 01:43 30.76329 114.21391 108 ft 28 kts 222°
2026-04-29 01:43 30.76183 114.21243 108 ft 28 kts 221°
2026-04-29 01:43 30.76042 114.21098 108 ft 27 kts 222°
2026-04-29 01:44 30.75924 114.20979 108 ft 13 kts 219°
2026-04-29 01:44 30.75851 114.20981 108 ft 9 kts 135°
2026-04-29 01:44 30.75814 114.21029 108 ft 9 kts 132°
2026-04-29 01:44 30.75790 114.21102 109 ft 9 kts 61°
2026-04-29 01:45 30.75800 114.21114 109 ft 0 kts 41°
2026-04-29 01:45 30.75808 114.21121 109 ft 8 kts 41°
2026-04-29 01:45 30.76014 114.21333 109 ft 75 kts 42°
2026-04-29 01:45 30.76560 114.21890 109 ft 131 kts 41°
2026-04-29 01:46 30.77352 114.22701 241 ft 163 kts 41°
2026-04-29 01:46 30.78209 114.23584 875 ft 164 kts 39°
2026-04-29 01:46 30.78965 114.24570 1643 ft 163 kts 53°
2026-04-29 01:46 30.79599 114.25685 2277 ft 173 kts 56°
2026-04-29 01:47 30.80279 114.26941 2596 ft 195 kts 58°
2026-04-29 01:47 30.81027 114.28323 3111 ft 208 kts 58°
2026-04-29 01:47 30.81807 114.29748 3984 ft 209 kts 58°
2026-04-29 01:47 30.82593 114.31173 4902 ft 210 kts 59°
2026-04-29 01:48 30.83036 114.32774 5741 ft 214 kts 89°
2026-04-29 01:48 30.82513 114.34425 6538 ft 230 kts 121°
2026-04-29 01:48 30.81465 114.35882 6833 ft 235 kts 125°
2026-04-29 01:48 30.80372 114.37288 6907 ft 234 kts 126°
2026-04-29 01:49 30.79272 114.38681 6944 ft 232 kts 126°
2026-04-29 01:49 30.78177 114.40069 6945 ft 233 kts 126°
2026-04-29 01:49 30.77034 114.41542 6935 ft 259 kts 126°
2026-04-29 01:49 30.75789 114.43108 6932 ft 269 kts 132°
2026-04-29 01:50 30.74098 114.44109 6948 ft 284 kts 163°
2026-04-29 01:50 30.72107 114.43941 6902 ft 300 kts 199°
2026-04-29 01:50 30.70373 114.42526 7628 ft 307 kts 220°
2026-04-29 01:50 30.68771 114.40878 8478 ft 310 kts 221°
2026-04-29 01:51 30.67151 114.39221 8807 ft 309 kts 221°
2026-04-29 01:51 30.65558 114.37598 8990 ft 309 kts 220°
2026-04-29 01:51 30.63933 114.35941 9733 ft 311 kts 221°
2026-04-29 01:51 30.62295 114.34270 10465 ft 319 kts 221°
2026-04-29 01:52 30.60572 114.32509 10740 ft 342 kts 221°
2026-04-29 01:52 30.58723 114.30619 10927 ft 365 kts 221°
2026-04-29 01:52 30.56764 114.28612 11178 ft 383 kts 221°
2026-04-29 01:52 30.54747 114.26549 11791 ft 389 kts 222°
2026-04-29 01:53 30.52707 114.24463 12462 ft 393 kts 222°
2026-04-29 01:53 30.50654 114.22366 13258 ft 393 kts 223°
2026-04-29 01:53 30.48603 114.20271 14040 ft 393 kts 223°
2026-04-29 01:53 30.46548 114.18178 14718 ft 393 kts 223°
2026-04-29 01:54 30.44492 114.16089 15398 ft 393 kts 223°
2026-04-29 01:54 30.42443 114.14003 16059 ft 392 kts 223°
2026-04-29 01:54 30.40395 114.11917 16723 ft 392 kts 223°
2026-04-29 01:54 30.38346 114.09833 17366 ft 392 kts 224°
2026-04-29 01:55 30.36295 114.07747 18009 ft 392 kts 224°
2026-04-29 01:55 30.34240 114.05658 18571 ft 394 kts 224°
2026-04-29 01:55 30.32173 114.03556 19013 ft 397 kts 224°
2026-04-29 01:55 30.29996 114.01576 19474 ft 400 kts 216°
2026-04-29 01:56 30.27544 114.00041 20018 ft 402 kts 208°
2026-04-29 01:56 30.25003 113.98676 20504 ft 403 kts 208°
2026-04-29 01:56 30.22452 113.97313 20963 ft 404 kts 208°
2026-04-29 01:56 30.19895 113.95949 21416 ft 406 kts 208°
2026-04-29 01:57 30.17327 113.94582 21854 ft 407 kts 208°
2026-04-29 01:57 30.14748 113.93207 22283 ft 409 kts 208°
2026-04-29 01:57 30.12166 113.91828 22700 ft 410 kts 208°
2026-04-29 01:57 30.09573 113.90441 23099 ft 412 kts 208°
2026-04-29 01:58 30.06969 113.89045 23469 ft 413 kts 208°
2026-04-29 01:58 30.04364 113.87648 23906 ft 413 kts 208°
2026-04-29 01:58 30.01754 113.86251 24249 ft 414 kts 208°
2026-04-29 01:58 29.99139 113.84855 24586 ft 415 kts 208°
2026-04-29 01:59 29.96551 113.83478 24907 ft 416 kts 208°
2026-04-29 01:59 29.93924 113.82084 25217 ft 417 kts 208°
2026-04-29 01:59 29.91287 113.80684 25521 ft 418 kts 209°
2026-04-29 01:59 29.88615 113.79344 25813 ft 421 kts 204°
2026-04-29 02:00 29.85757 113.78468 26097 ft 429 kts 195°
2026-04-29 02:00 29.82757 113.78137 26348 ft 436 kts 189°
2026-04-29 02:00 29.79727 113.77933 26667 ft 436 kts 189°
2026-04-29 02:00 29.76695 113.77732 26962 ft 437 kts 189°
2026-04-29 02:01 29.73659 113.77529 27245 ft 438 kts 189°
2026-04-29 02:01 29.70612 113.77322 27576 ft 437 kts 190°
2026-04-29 02:01 29.67584 113.77113 27993 ft 435 kts 190°
2026-04-29 02:01 29.64569 113.76904 28414 ft 433 kts 190°
2026-04-29 02:02 29.61567 113.76697 28823 ft 431 kts 190°
2026-04-29 02:02 29.58575 113.76490 29243 ft 430 kts 190°
2026-04-29 02:02 29.55598 113.76283 29647 ft 427 kts 190°
2026-04-29 02:02 29.52641 113.76079 30101 ft 425 kts 190°
2026-04-29 02:03 29.49699 113.75874 30519 ft 422 kts 190°
2026-04-29 02:03 29.46770 113.75669 30878 ft 421 kts 190°
2026-04-29 02:03 29.43855 113.75464 31204 ft 420 kts 190°
2026-04-29 02:03 29.40935 113.75259 31526 ft 419 kts 190°
2026-04-29 02:04 29.38030 113.75055 31874 ft 418 kts 191°
2026-04-29 02:04 29.35121 113.74851 32176 ft 420 kts 192°
2026-04-29 02:04 29.32202 113.74638 32305 ft 420 kts 191°
2026-04-29 02:04 29.29290 113.74433 32310 ft 419 kts 191°
2026-04-29 02:05 29.23471 113.74047 32325 ft 419 kts 189°
2026-04-29 02:05 29.17537 113.74025 32318 ft 435 kts 186°
2026-04-29 02:06 29.11427 113.74321 32409 ft 442 kts 185°
2026-04-29 02:06 29.08354 113.74478 32668 ft 442 kts 185°
2026-04-29 02:06 29.05286 113.74611 32953 ft 440 kts 185°
2026-04-29 02:07 29.02230 113.74716 33230 ft 439 kts 186°
2026-04-29 02:07 28.99178 113.74800 33522 ft 438 kts 186°
2026-04-29 02:07 28.96132 113.74874 33814 ft 437 kts 186°
2026-04-29 02:07 28.93094 113.74947 34101 ft 436 kts 189°
2026-04-29 02:08 28.90078 113.75022 34582 ft 428 kts 187°
2026-04-29 02:08 28.87130 113.75106 35211 ft 420 kts 187°
2026-04-29 02:08 28.84223 113.75188 35607 ft 417 kts 187°
2026-04-29 02:08 28.81332 113.75270 35890 ft 415 kts 187°
2026-04-29 02:09 28.78432 113.75351 36016 ft 418 kts 187°
2026-04-29 02:09 28.75559 113.75433 36103 ft 420 kts 187°
2026-04-29 02:09 28.72649 113.75411 36244 ft 416 kts 191°
2026-04-29 02:09 28.69756 113.75200 36298 ft 418 kts 191°
2026-04-29 02:10 28.63985 113.74779 36560 ft 410 kts 191°
2026-04-29 02:10 28.61120 113.74570 36390 ft 414 kts 191°
2026-04-29 02:10 28.58245 113.74359 36288 ft 414 kts 191°
2026-04-29 02:11 28.52472 113.73935 36293 ft 416 kts 191°
2026-04-29 02:11 28.46680 113.73506 36296 ft 420 kts 191°
2026-04-29 02:12 28.41833 113.73148 36282 ft 420 kts 191°
2026-04-29 02:12 28.35993 113.72725 36282 ft 421 kts 191°
2026-04-29 02:13 28.30149 113.72305 36283 ft 421 kts 191°
2026-04-29 02:13 28.23318 113.71815 36254 ft 421 kts 191°
2026-04-29 02:14 28.18450 113.71459 36255 ft 422 kts 191°
2026-04-29 02:14 28.12584 113.71028 36253 ft 423 kts 191°
2026-04-29 02:15 28.06715 113.70542 36258 ft 423 kts 192°
2026-04-29 02:15 28.00852 113.69998 36263 ft 423 kts 192°
2026-04-29 02:16 27.94985 113.69456 36233 ft 423 kts 192°
2026-04-29 02:16 27.89106 113.68931 36241 ft 424 kts 192°
2026-04-29 02:17 27.83218 113.68407 36254 ft 424 kts 192°
2026-04-29 02:17 27.77330 113.67881 36258 ft 425 kts 192°
2026-04-29 02:18 27.71433 113.67353 36262 ft 425 kts 192°
2026-04-29 02:18 27.65541 113.66829 36249 ft 425 kts 191°
2026-04-29 02:19 27.59659 113.66473 36254 ft 428 kts 188°
2026-04-29 02:19 27.53698 113.66395 36259 ft 429 kts 187°
2026-04-29 02:20 27.47733 113.66355 36259 ft 428 kts 188°
2026-04-29 02:20 27.41775 113.66251 36220 ft 428 kts 188°
2026-04-29 02:21 27.35812 113.66101 36224 ft 429 kts 188°
2026-04-29 02:21 27.29824 113.65948 36238 ft 431 kts 188°
2026-04-29 02:22 27.23832 113.65819 36236 ft 431 kts 188°
2026-04-29 02:22 27.17810 113.65909 36242 ft 439 kts 179°
2026-04-29 02:23 27.11782 113.67506 36222 ft 448 kts 173°
2026-04-29 02:23 27.05742 113.69296 36227 ft 449 kts 173°
2026-04-29 02:24 26.99689 113.71083 36228 ft 450 kts 173°
2026-04-29 02:25 26.90596 113.73767 36238 ft 451 kts 173°
2026-04-29 02:25 26.84528 113.75550 36216 ft 451 kts 173°
2026-04-29 02:26 26.78442 113.77338 36211 ft 453 kts 173°
2026-04-29 02:26 26.72342 113.79132 36213 ft 454 kts 172°
2026-04-29 02:27 26.66245 113.81029 36207 ft 456 kts 172°
2026-04-29 02:27 26.60144 113.82980 36215 ft 456 kts 172°
2026-04-29 02:28 26.54039 113.84914 36188 ft 456 kts 172°
2026-04-29 02:28 26.47916 113.86812 36205 ft 456 kts 172°
2026-04-29 02:29 26.41815 113.88582 36209 ft 456 kts 173°
2026-04-29 02:29 26.35678 113.90316 36210 ft 454 kts 173°
2026-04-29 02:30 26.29546 113.92066 36205 ft 455 kts 173°
2026-04-29 02:30 26.23405 113.93839 36210 ft 456 kts 173°
2026-04-29 02:31 26.17259 113.95620 36202 ft 456 kts 173°
2026-04-29 02:31 26.11119 113.97394 36208 ft 456 kts 173°
2026-04-29 02:32 26.04970 113.99146 36211 ft 454 kts 176°
2026-04-29 02:32 25.98820 113.99541 36214 ft 436 kts 193°
2026-04-29 02:33 25.92866 113.98533 36181 ft 433 kts 195°
2026-04-29 02:33 25.86907 113.97504 36189 ft 434 kts 195°
2026-04-29 02:34 25.80938 113.96473 36175 ft 434 kts 195°
2026-04-29 02:34 25.74965 113.95446 36179 ft 435 kts 195°
2026-04-29 02:35 25.68987 113.94418 36166 ft 435 kts 195°
2026-04-29 02:35 25.63001 113.93387 36164 ft 436 kts 195°
2026-04-29 02:36 25.56998 113.92353 36174 ft 437 kts 195°
2026-04-29 02:36 25.50986 113.91317 36171 ft 437 kts 195°
2026-04-29 02:37 25.44969 113.90286 36174 ft 437 kts 195°
2026-04-29 02:37 25.38949 113.89248 36156 ft 438 kts 195°
2026-04-29 02:38 25.32919 113.88211 36158 ft 439 kts 195°
2026-04-29 02:38 25.26877 113.87180 36154 ft 440 kts 195°
2026-04-29 02:39 25.20827 113.86140 36122 ft 441 kts 195°
2026-04-29 02:39 25.17794 113.85620 35663 ft 441 kts 195°
2026-04-29 02:39 25.14767 113.85103 35172 ft 440 kts 194°
2026-04-29 02:39 25.11732 113.84585 34711 ft 442 kts 194°
2026-04-29 02:40 25.08685 113.84066 34251 ft 444 kts 193°
2026-04-29 02:40 25.05633 113.83546 33766 ft 445 kts 193°
2026-04-29 02:40 25.02560 113.83023 33253 ft 448 kts 193°
2026-04-29 02:40 24.99485 113.82501 32746 ft 447 kts 193°
2026-04-29 02:41 24.96414 113.81978 32245 ft 447 kts 193°
2026-04-29 02:41 24.93376 113.81459 31767 ft 449 kts 193°
2026-04-29 02:41 24.90291 113.80931 31291 ft 450 kts 193°
2026-04-29 02:41 24.87195 113.80403 30823 ft 450 kts 192°
2026-04-29 02:42 24.84094 113.79879 30340 ft 452 kts 192°
2026-04-29 02:42 24.80977 113.79352 29847 ft 454 kts 192°
2026-04-29 02:42 24.77854 113.78826 29310 ft 455 kts 192°
2026-04-29 02:42 24.74718 113.78296 28781 ft 457 kts 192°
2026-04-29 02:43 24.71575 113.77764 28269 ft 458 kts 192°
2026-04-29 02:43 24.68422 113.77228 27767 ft 459 kts 192°
2026-04-29 02:43 24.65257 113.76691 27272 ft 461 kts 192°
2026-04-29 02:43 24.62086 113.76151 26777 ft 462 kts 192°
2026-04-29 02:44 24.58907 113.75611 26297 ft 463 kts 192°
2026-04-29 02:44 24.55717 113.75070 25810 ft 465 kts 192°
2026-04-29 02:44 24.52505 113.74524 25332 ft 469 kts 192°
2026-04-29 02:44 24.49270 113.73977 24885 ft 471 kts 192°
2026-04-29 02:45 24.46024 113.73430 24442 ft 473 kts 192°
2026-04-29 02:45 24.42769 113.72884 24003 ft 474 kts 192°
2026-04-29 02:45 24.39518 113.72337 23549 ft 472 kts 192°
2026-04-29 02:45 24.36279 113.71793 23041 ft 469 kts 192°
2026-04-29 02:46 24.33070 113.71257 22513 ft 464 kts 191°
2026-04-29 02:46 24.29887 113.70725 21994 ft 461 kts 192°
2026-04-29 02:46 24.26722 113.70192 21488 ft 459 kts 192°
2026-04-29 02:46 24.23581 113.69661 21007 ft 455 kts 192°
2026-04-29 02:47 24.20463 113.69131 20532 ft 452 kts 192°
2026-04-29 02:47 24.17369 113.68604 20052 ft 448 kts 192°
2026-04-29 02:47 24.14299 113.68083 19590 ft 445 kts 192°
2026-04-29 02:47 24.11248 113.67563 19133 ft 442 kts 192°
2026-04-29 02:48 24.08221 113.67050 18684 ft 439 kts 192°
2026-04-29 02:48 24.05216 113.66543 18224 ft 436 kts 191°
2026-04-29 02:48 24.02232 113.66039 17699 ft 432 kts 192°
2026-04-29 02:48 23.99266 113.65539 17185 ft 429 kts 192°
2026-04-29 02:49 23.96323 113.65045 16674 ft 426 kts 192°
2026-04-29 02:49 23.93405 113.64555 16184 ft 423 kts 192°
2026-04-29 02:49 23.90505 113.64068 15692 ft 420 kts 192°
2026-04-29 02:49 23.87629 113.63583 15232 ft 416 kts 192°
2026-04-29 02:50 23.84777 113.63098 14752 ft 413 kts 192°
2026-04-29 02:50 23.81961 113.62544 14294 ft 408 kts 197°
2026-04-29 02:50 23.79277 113.61613 13847 ft 402 kts 205°
2026-04-29 02:50 23.76777 113.60292 13344 ft 397 kts 212°
2026-04-29 02:51 23.74476 113.58733 12845 ft 394 kts 214°
2026-04-29 02:51 23.72160 113.57150 12328 ft 392 kts 214°
2026-04-29 02:51 23.69851 113.55577 11833 ft 389 kts 214°
2026-04-29 02:51 23.67562 113.54021 11351 ft 386 kts 214°
2026-04-29 02:52 23.65296 113.52483 10874 ft 383 kts 214°
2026-04-29 02:52 23.63042 113.50956 10378 ft 380 kts 214°
2026-04-29 02:52 23.60768 113.49495 9947 ft 378 kts 210°
2026-04-29 02:52 23.58406 113.48371 9753 ft 363 kts 202°
2026-04-29 02:53 23.56052 113.47606 9759 ft 342 kts 197°
2026-04-29 02:53 23.53812 113.47004 9766 ft 322 kts 197°
2026-04-29 02:53 23.51687 113.46426 9663 ft 308 kts 198°
2026-04-29 02:53 23.49655 113.45870 9568 ft 295 kts 198°
2026-04-29 02:54 23.47705 113.45336 9453 ft 283 kts 198°
2026-04-29 02:54 23.45816 113.44821 9343 ft 278 kts 198°
2026-04-29 02:54 23.43949 113.44309 9147 ft 278 kts 198°
2026-04-29 02:54 23.42051 113.43787 8670 ft 285 kts 197°
2026-04-29 02:55 23.40111 113.43256 8185 ft 289 kts 197°
2026-04-29 02:55 23.38152 113.42722 7732 ft 291 kts 197°
2026-04-29 02:55 23.36183 113.42185 7265 ft 292 kts 197°
2026-04-29 02:55 23.34214 113.41650 6809 ft 291 kts 197°
2026-04-29 02:56 23.32246 113.41121 6348 ft 291 kts 197°
2026-04-29 02:56 23.30282 113.40594 5851 ft 290 kts 197°
2026-04-29 02:56 23.28322 113.40066 5362 ft 290 kts 197°
2026-04-29 02:56 23.26371 113.39530 4878 ft 289 kts 194°
2026-04-29 02:57 23.24430 113.39002 4379 ft 287 kts 196°
2026-04-29 02:57 23.22497 113.38480 3879 ft 286 kts 196°
2026-04-29 02:57 23.20557 113.37958 3389 ft 288 kts 194°
2026-04-29 02:57 23.18608 113.37434 2899 ft 289 kts 195°
2026-04-29 02:58 23.16653 113.36912 2397 ft 290 kts 199°
2026-04-29 02:58 23.14704 113.36384 2053 ft 284 kts 195°
2026-04-29 02:58 23.13478 113.35984 1997 ft 271 kts 206°
2026-04-29 02:58 23.12070 113.34816 2004 ft 245 kts 238°
2026-04-29 02:59 23.11434 113.32693 2012 ft 212 kts 272°
2026-04-29 02:59 23.11492 113.31655 2006 ft 197 kts 291°
2026-04-29 02:59 23.12172 113.30500 2036 ft 176 kts 320°
2026-04-29 02:59 23.13105 113.29672 2019 ft 171 kts 326°
2026-04-29 03:00 23.14059 113.28901 2018 ft 171 kts 326°
2026-04-29 03:00 23.15016 113.28132 2016 ft 171 kts 327°
2026-04-29 03:00 23.15968 113.27359 2020 ft 171 kts 326°
2026-04-29 03:00 23.17366 113.26677 2015 ft 169 kts 352°
2026-04-29 03:01 23.18161 113.26597 2015 ft 170 kts 355°
2026-04-29 03:01 23.19340 113.26635 2012 ft 170 kts
2026-04-29 03:01 23.20522 113.26813 2012 ft 172 kts
2026-04-29 03:01 23.21703 113.26991 2014 ft 169 kts
2026-04-29 03:02 23.22855 113.27123 2011 ft 165 kts
2026-04-29 03:02 23.23979 113.27336 2012 ft 163 kts 12°
2026-04-29 03:02 23.25081 113.27602 2010 ft 162 kts 14°
2026-04-29 03:02 23.26177 113.27875 2009 ft 162 kts 14°
2026-04-29 03:03 23.27260 113.28149 1980 ft 162 kts 15°
2026-04-29 03:03 23.28332 113.28440 1738 ft 149 kts 14°
2026-04-29 03:03 23.29280 113.28698 1576 ft 139 kts 14°
2026-04-29 03:03 23.30216 113.28951 1374 ft 135 kts 14°
2026-04-29 03:04 23.31112 113.29193 1195 ft 134 kts 15°
2026-04-29 03:04 23.32012 113.29436 1023 ft 133 kts 14°
2026-04-29 03:04 23.32928 113.29684 863 ft 134 kts 12°
2026-04-29 03:04 23.33832 113.29928 693 ft 137 kts 11°
2026-04-29 03:05 23.34746 113.30174 523 ft 137 kts 11°
2026-04-29 03:05 23.35664 113.30428 359 ft 136 kts 13°
2026-04-29 03:05 23.36580 113.30672 192 ft 135 kts 11°
2026-04-29 03:05 23.37472 113.30914 56 ft 122 kts 13°
2026-04-29 03:06 23.38139 113.31088 58 ft 74 kts 14°
2026-04-29 03:06 23.38479 113.31180 52 ft 36 kts 13°
2026-04-29 03:06 23.38690 113.31199 55 ft 29 kts 348°
2026-04-29 03:06 23.38836 113.31159 55 ft 8 kts 347°
2026-04-29 03:07 23.38896 113.31143 53 ft 10 kts 346°
2026-04-29 03:07 23.38966 113.31127 53 ft 11 kts 354°
2026-04-29 03:07 23.39049 113.31135 57 ft 13 kts 12°
2026-04-29 03:07 23.39115 113.31094 56 ft 13 kts 285°
2026-04-29 03:08 23.39140 113.30988 53 ft 18 kts 284°
2026-04-29 03:08 23.39176 113.30831 57 ft 19 kts 284°
2026-04-29 03:08 23.39119 113.30749 53 ft 14 kts 193°
2026-04-29 03:08 23.39026 113.30725 54 ft 16 kts 193°
2026-04-29 03:09 23.38874 113.30685 58 ft 25 kts 194°
2026-04-29 03:09 23.38698 113.30637 54 ft 27 kts 194°
2026-04-29 03:09 23.38520 113.30588 55 ft 26 kts 194°
2026-04-29 03:09 23.38381 113.30551 52 ft 13 kts 202°
2026-04-29 03:10 23.38369 113.30461 58 ft 16 kts 283°
2026-04-29 03:10 23.38397 113.30337 55 ft 14 kts 283°
2026-04-29 03:10 23.38438 113.30264 55 ft 10 kts 320°
2026-04-29 03:10 23.38495 113.30216 51 ft 9 kts 322°
2026-04-29 03:11 23.38513 113.30171 58 ft 7 kts 253°
2026-04-29 03:11 23.38487 113.30130 55 ft 6 kts 232°
2026-04-29 03:11 23.38476 113.30115 54 ft 1 kts 232°
2026-04-29 03:11 23.38473 113.30111 50 ft 0 kts 232°
2026-04-29 03:12 23.38472 113.30109 50 ft 0 kts 232°